[[{"header":{"parameterUnit":"m.s-1","parameterCategory":1,"la1":30.2991,"la2":30.254,"lo1":-89.0895,"lo2":-89.0444,"dy":0.0017,"dx":0.0017,"nx":28,"ny":28,"refTime":"2024-04-28T09:00:00:Z","depth":0,"parameterNumber":2,"parameterNumberName":"U-component_of_WINDS"},"data":[0,0,0,0,0,0,0,0,0,0,0,0,0,0,0,0,0,0,0,0,0,0,0,0,0,0,0,0,0,0,0,0,0,0,0,0,0,0,0,0,0,0,0,0,0,0,0,0,0,0,0,0,0,0,0,0,0,0,-8.9333,-8.9335,0,-8.9456,-8.9457,-8.9459,-8.9426,-8.9423,-8.9421,-8.9419,-8.9536,-8.9541,-8.9546,0,0,0,0,0,0,0,0,0,0,0,0,0,-8.9064,-8.9069,-8.9333,-8.9335,-8.9336,-8.9456,-8.9457,-8.9459,-8.9426,-8.9423,-8.942,-8.9418,-8.9534,-8.954,-8.9547,0,0,0,0,0,0,0,0,0,0,0,0,0,-8.9183,-8.9071,-8.9333,-8.9335,-8.9336,-8.9455,-8.9458,-8.946,-8.9427,-8.9423,-8.942,-8.9416,-8.9532,-8.954,-8.9548,-8.967,0,0,-8.9572,-8.9576,0,0,0,0,0,0,0,0,-8.9177,-8.9193,-8.9333,-8.9335,-8.9336,-8.9422,-8.9405,-8.953,-8.9428,-8.9392,-8.9419,-8.9414,-8.95,-8.9511,-8.9541,-8.9676,-8.9681,-8.9573,-8.9578,-8.9581,-8.9584,0,0,0,0,0,0,0,-8.9168,-8.9188,-8.9381,-8.9335,-8.9337,-8.9327,-8.934,-8.9429,-8.9465,-8.9395,-8.9393,-8.9408,-8.95,-8.9534,-8.9544,-8.9682,-8.9573,-8.958,-8.9585,-8.9588,-8.9924,-8.9928,0,0,0,0,0,0,-8.916,-8.9181,-8.9378,-8.9385,-8.9246,-8.9335,-8.9349,-8.9398,-8.9464,-8.9471,-8.9411,-8.9406,-8.9522,-8.9534,-8.9548,-8.9695,-8.9581,-8.9589,-8.9593,-8.992,-8.9925,-8.993,0,0,0,0,0,0,-8.9154,-8.9178,-8.9373,-8.9283,-8.9307,-8.9344,-8.9399,-8.9402,-8.9436,-8.9476,-8.9482,-8.9439,-8.9519,-8.9536,-8.9641,-8.9699,-8.9592,-8.96,-8.9915,-8.9922,-8.9927,-8.9991,0,0,0,0,0,0,-8.9146,-8.9176,-8.9224,-8.9284,-8.9312,-8.9465,-8.9402,-8.9408,-8.9451,-8.9445,-8.9504,-8.951,-8.9518,-8.9629,-8.9649,-8.9708,-8.9606,-8.991,-8.9918,-8.9925,-8.9984,-8.9999,-9.0011,0,0,0,0,0,-8.9137,-8.9235,-8.9226,-8.925,-8.9373,-8.9469,-8.9484,-8.9494,-8.9456,-8.9503,-8.953,-8.9508,-8.9691,-8.964,-8.9662,-8.9724,-8.9906,-8.9916,-8.9925,-8.9978,-8.9996,-9.0011,0,0,0,0,0,0,-8.9176,-8.9242,-8.9234,-8.9355,-8.9407,-8.9463,-8.9523,-8.9513,-8.9574,-8.9566,-8.9573,-8.9587,-8.9693,-8.972,-8.9662,-8.9847,-8.9793,-8.9807,-8.9825,-8.9843,-8.9856,-8.9845,-8.9613,0,0,0,0,0,-8.92,-8.9274,-8.9327,-8.9429,-8.9456,-8.9486,-8.9527,-8.9531,-8.9584,-8.9605,-8.9639,-8.9689,-8.9758,-8.9802,-8.9868,-8.999,-9.0001,-9.0043,-9.0057,-9.0068,-9.0079,-9.0145,-9.0164,-8.996,-8.996,-8.996,0,0,-8.9247,-8.9292,-8.9338,-8.9438,-8.9478,-8.9553,-8.9504,-8.9585,-8.964,-8.9616,-8.9717,-8.9745,-8.9801,-8.9915,-8.9966,-8.994,-9.0139,-9.008,-9.0088,-9.0093,-9.0156,-9.0175,-9.0192,-8.9966,-8.9965,-8.9964,0,0,-8.9371,-8.9414,-8.9503,-8.9547,-8.9611,-8.9631,-8.9653,-8.9712,-8.973,-8.9833,-8.9817,-8.9882,-9.0,-9.0041,-9.0077,-9.0223,-9.0204,-9.0244,-9.0313,-9.0378,-9.0394,-9.0408,-9.0457,-9.0475,-9.0255,-9.0256,-9.0256,0,-8.942,-8.9535,-8.9549,-8.9633,-8.9677,-8.9664,-8.9753,-8.9794,-8.9875,-8.9904,-8.9875,-9.0025,-9.0062,-9.0185,-9.0221,-9.0252,-9.0275,-9.0235,-9.0391,-9.0405,-9.0419,-9.0466,-9.0485,-9.026,-9.0259,-9.0259,-9.0259,0,-8.9592,-8.9672,-8.9736,-8.9819,-8.987,-8.9956,-8.9982,-9.0032,-9.0033,-9.0056,-9.016,-9.0206,-9.028,-9.0311,-9.031,-9.0434,-9.0416,-9.0389,-9.0333,-9.0442,-9.0486,-9.0505,-9.0266,-9.0264,-9.0263,-9.0262,0,0,-8.9738,-8.9832,-8.9855,-8.9892,-8.9965,-9.0025,-9.0111,-9.0188,-9.023,-9.0288,-9.0358,-9.0461,-9.0438,-9.0479,-9.0484,-9.0542,-9.0652,-9.0508,-9.0509,-9.053,-9.0789,-9.0806,-9.0826,-9.0643,-9.0646,-9.0649,-9.0783,0,-8.9866,-9.002,-9.0037,-9.0173,-9.0246,-9.0238,-9.0313,-9.0364,-9.0389,-9.0453,-9.0479,-9.0552,-9.0517,-9.0542,-9.0598,-9.0626,-9.0703,-9.0617,-9.0704,-9.0707,-9.0687,-9.085,-9.0868,-9.0992,-9.0801,-9.0804,-9.0806,0,-9.0035,-9.0101,-9.0245,-9.0309,-9.0341,-9.0408,-9.048,-9.0543,-9.0601,-9.0615,-9.0665,-9.0663,-9.075,-9.0696,-9.0814,-9.0756,-9.0793,-9.0813,-9.0818,-9.0823,-9.076,-9.0856,-9.1032,-9.1049,-9.0834,-9.0832,-9.083,0,-9.0124,-9.025,-9.0352,-9.0385,-9.0463,-9.051,-9.0544,-9.06,-9.0645,-9.0708,-9.0738,-9.081,-9.0848,-9.0902,-9.092,-9.0879,-9.1038,-9.0985,-9.1049,-9.1049,-9.1078,-9.1075,-9.1259,-9.1109,-9.1109,-9.1109,-9.1108,0,-9.0263,-9.035,-9.0394,-9.0456,-9.0554,-9.0574,-9.067,-9.0702,-9.0752,-9.0819,-9.0817,-9.0879,-9.0901,-9.0967,-9.0981,-9.1076,-9.1094,-9.1106,-9.1108,-9.1104,-9.1102,-9.1125,-9.1116,-9.1114,-9.1113,-9.1112,-9.1111,0,-9.0377,-9.041,-9.052,-9.0587,-9.0606,-9.0675,-9.0731,-9.0791,-9.0817,-9.0902,-9.0923,-9.0963,-9.1041,-9.1066,-9.1159,-9.1169,-9.1279,-9.1275,-9.126,-9.1259,-9.1321,-9.1313,-9.1522,-9.155,-9.1385,-9.1387,-9.1388,0,-9.0461,-9.0529,-9.0605,-9.0651,-9.0688,-9.0763,-9.0811,-9.0834,-9.0883,-9.0957,-9.1008,-9.1086,-9.1149,-9.1274,-9.1309,-9.1381,-9.1376,-9.1445,-9.1386,-9.1381,-9.1374,-9.1368,-9.1374,-9.1454,-9.1456,-9.1457,-9.1459,0,-9.0607,-9.0621,-9.0691,-9.0769,-9.0827,-9.0888,-9.0947,-9.0984,-9.1016,-9.1072,-9.1153,-9.1203,-9.1301,-9.1377,-9.1451,-9.1484,-9.1476,-9.1478,-9.1496,-9.149,-9.1477,-9.1483,-9.1286,-9.1471,-9.147,-9.1469,-9.1468,-9.1468,-9.0706,-9.0767,-9.083,-9.0909,-9.0957,-9.1013,-9.1073,-9.1109,-9.1178,-9.1261,-9.1271,-9.1358,-9.1416,-9.1515,-9.1552,-9.1619,-9.1599,-9.1626,-9.1632,-9.1637,-9.1641,-9.1471,-9.1633,-9.1633,-9.1632,-9.1632,-9.1632,0,-9.085,-9.0891,-9.0964,-9.1049,-9.1111,-9.1104,-9.117,-9.1221,-9.1299,-9.1356,-9.142,-9.1513,-9.1589,-9.1633,-9.1708,-9.1754,-9.1752,-9.1772,-9.1767,-9.1774,-9.1656,-9.1631,-9.1772,-9.1772,-9.1772,-9.1772,-9.1772,-9.1772,-9.0931,-9.1033,-9.1055,-9.118,-9.122,-9.1308,-9.1346,-9.1397,-9.1443,-9.1549,-9.1613,-9.1643,-9.1694,-9.1774,-9.1843,-9.1853,-9.1879,-9.1902,-9.191,-9.1797,-9.1783,-9.1769,-9.1745,-9.1908,-9.1908,-9.2022,-9.2023,-9.2024]},{"header":{"parameterUnit":"m.s-1","parameterCategory":1,"la1":30.2991,"la2":30.254,"lo1":-89.0895,"lo2":-89.0444,"dy":0.0017,"dx":0.0017,"nx":28,"ny":28,"refTime":"2024-04-28T09:00:00:Z","depth":0,"parameterNumber":3,"parameterNumberName":"V-component_of_WINDS"},"data":[0,0,0,0,0,0,0,0,0,0,0,0,0,0,0,0,0,0,0,0,0,0,0,0,0,0,0,0,0,0,0,0,0,0,0,0,0,0,0,0,0,0,0,0,0,0,0,0,0,0,0,0,0,0,0,0,0,0,6.527,6.5271,0,6.5362,6.5363,6.5364,6.5395,6.5394,6.5394,6.5394,6.5481,6.5484,6.5487,0,0,0,0,0,0,0,0,0,0,0,0,0,6.5118,6.512,6.527,6.5271,6.5273,6.5362,6.5363,6.5364,6.5395,6.5394,6.5394,6.5394,6.548,6.5484,6.5487,0,0,0,0,0,0,0,0,0,0,0,0,0,6.5194,6.5121,6.527,6.5299,6.5302,6.5362,6.5363,6.5365,6.5395,6.5394,6.5394,6.5393,6.5479,6.5483,6.5487,6.5523,0,0,6.55,6.5501,0,0,0,0,0,0,0,0,6.5189,6.5199,6.5293,6.5297,6.5301,6.5367,6.5341,6.5417,6.5395,6.536,6.5394,6.5393,6.5443,6.545,6.5468,6.5527,6.5531,6.55,6.5502,6.5504,6.5505,0,0,0,0,0,0,0,6.5184,6.5196,6.5306,6.5295,6.5299,6.5306,6.5316,6.5356,6.5403,6.5363,6.5365,6.5376,6.5445,6.5464,6.5471,6.5532,6.55,6.5503,6.5506,6.5507,6.5626,6.5627,0,0,0,0,0,0,6.5175,6.5191,6.5303,6.5309,6.5243,6.5309,6.532,6.5346,6.5403,6.5411,6.5376,6.5377,6.5458,6.5466,6.5474,6.552,6.5504,6.5508,6.551,6.5625,6.5626,6.5627,0,0,0,0,0,0,6.5171,6.5185,6.53,6.5251,6.5266,6.5312,6.5341,6.5348,6.5367,6.5413,6.5421,6.5388,6.5458,6.5468,6.5511,6.5524,6.551,6.5513,6.5624,6.5626,6.5627,6.5613,0,0,0,0,0,0,6.5167,6.5183,6.5198,6.5251,6.5269,6.5337,6.5341,6.535,6.5375,6.5377,6.5426,6.5433,6.5458,6.5505,6.5515,6.5529,6.5516,6.5623,6.5625,6.5626,6.5612,6.5613,6.5614,0,0,0,0,0,6.5161,6.5189,6.5199,6.5212,6.5288,6.5338,6.5347,6.5377,6.5376,6.5391,6.542,6.5432,6.5521,6.5509,6.5521,6.5536,6.5623,6.5625,6.5626,6.5612,6.5613,6.5614,0,0,0,0,0,0,6.5133,6.5196,6.5208,6.5253,6.529,6.5343,6.5362,6.5377,6.5413,6.5413,6.5446,6.5457,6.5498,6.5521,6.5507,6.5574,6.5572,6.5576,6.5558,6.5559,6.556,6.5553,6.552,0,0,0,0,0,6.5133,6.5169,6.5221,6.5257,6.5275,6.5315,6.5338,6.5358,6.5396,6.5411,6.5444,6.548,6.5516,6.5539,6.5574,6.5616,6.5627,6.5632,6.5633,6.5634,6.5637,6.5662,6.5665,6.5633,6.5633,6.5633,0,0,6.5131,6.517,6.519,6.5252,6.5283,6.5319,6.5328,6.5365,6.5392,6.5416,6.546,6.5485,6.5527,6.557,6.5591,6.5591,6.5648,6.5636,6.5636,6.5639,6.5664,6.5667,6.5669,6.5634,6.5634,6.5633,0,0,6.5147,6.518,6.5214,6.5246,6.5294,6.5321,6.5329,6.538,6.5398,6.5443,6.5463,6.5494,6.5556,6.5585,6.5608,6.5638,6.565,6.5649,6.5653,6.5677,6.5679,6.5682,6.5693,6.5696,6.5651,6.5651,6.5651,0,6.5138,6.5195,6.5229,6.5266,6.5293,6.532,6.5354,6.5382,6.5438,6.5455,6.5455,6.5534,6.5564,6.5615,6.5623,6.564,6.565,6.5643,6.5677,6.5679,6.5682,6.5693,6.5697,6.5651,6.5651,6.5651,6.5651,0,6.5183,6.5222,6.5243,6.53,6.5329,6.5364,6.5402,6.5427,6.5445,6.5472,6.5517,6.5555,6.5599,6.5613,6.5629,6.5666,6.5665,6.5671,6.5669,6.5684,6.5695,6.5699,6.565,6.5651,6.5651,6.5651,0,0,6.5182,6.5259,6.5266,6.5293,6.5349,6.5378,6.5415,6.5461,6.5482,6.552,6.5551,6.5604,6.561,6.5636,6.5656,6.5677,6.57,6.568,6.5682,6.5683,6.5743,6.5739,6.5743,6.5708,6.5709,6.571,6.574,0,6.5205,6.5274,6.5307,6.536,6.5397,6.5424,6.5456,6.5493,6.5519,6.5553,6.5581,6.5619,6.5624,6.564,6.5662,6.5692,6.5712,6.569,6.5737,6.5738,6.5725,6.5749,6.5744,6.5771,6.5744,6.5745,6.5746,0,6.5241,6.5283,6.5341,6.5394,6.5411,6.5439,6.5485,6.5517,6.5559,6.5577,6.5608,6.5628,6.5667,6.5663,6.5717,6.5702,6.5722,6.574,6.5742,6.5747,6.5742,6.5755,6.578,6.5784,6.5753,6.5752,6.5751,0,6.5236,6.5305,6.535,6.5372,6.5435,6.5454,6.5481,6.5523,6.5549,6.5589,6.5606,6.5648,6.5671,6.5703,6.5734,6.5729,6.5785,6.5784,6.58,6.5799,6.581,6.5809,6.5838,6.5823,6.5823,6.5823,6.5823,0,6.5259,6.5293,6.5349,6.5376,6.5415,6.5452,6.549,6.5518,6.5556,6.5589,6.5614,6.5643,6.5682,6.5716,6.5741,6.5782,6.5791,6.5806,6.5812,6.5804,6.5802,6.5818,6.5817,6.5824,6.5824,6.5824,6.5824,0,6.5258,6.5297,6.5347,6.5404,6.5419,6.5446,6.5494,6.5521,6.5549,6.559,6.5602,6.5646,6.5688,6.5722,6.5776,6.5792,6.5835,6.5842,6.5822,6.5825,6.5839,6.5837,6.588,6.5888,6.5867,6.5867,6.5867,0,6.5271,6.5298,6.5359,6.5384,6.5411,6.545,6.5478,6.5515,6.5543,6.5595,6.5615,6.566,6.5697,6.5762,6.5798,6.584,6.5848,6.586,6.5854,6.5846,6.5848,6.5846,6.585,6.586,6.586,6.586,6.586,0,6.5288,6.5307,6.5347,6.5394,6.5427,6.5466,6.5504,6.5523,6.5567,6.5596,6.5641,6.567,6.5727,6.577,6.5817,6.5842,6.5859,6.5862,6.5868,6.586,6.5847,6.5855,6.5823,6.5861,6.5861,6.5861,6.5861,6.5861,6.5295,6.5322,6.5369,6.5413,6.5447,6.5483,6.5512,6.5546,6.5584,6.5635,6.5654,6.57,6.5742,6.5806,6.5833,6.5868,6.587,6.5878,6.588,6.5882,6.5881,6.5842,6.5877,6.5877,6.5877,6.5877,6.5877,0,6.5314,6.5347,6.5387,6.5443,6.5477,6.5492,6.5536,6.5564,6.5605,6.5644,6.5682,6.5733,6.5776,6.5816,6.586,6.5881,6.589,6.5891,6.589,6.5896,6.5877,6.5868,6.5884,6.5884,6.5884,6.5884,6.5884,6.5884,6.5328,6.5375,6.5399,6.5462,6.5494,6.5541,6.5565,6.5598,6.5631,6.5688,6.5724,6.5751,6.5791,6.5839,6.5879,6.589,6.5905,6.5905,6.5917,6.5898,6.5897,6.5896,6.5887,6.5908,6.5908,6.5933,6.5933,6.5934]}]]